Location: Baumgarten
(49.0970°N, 12.7493°E)
Time: 19:15:12
(UTC+00:00)

Cosmos 1408 Rocket - Pass Details

Date: 05 July 2020
Orbit: 601 x 630 km, 82.6° (Epoch: 11 August)

Event Time Altitude Azimuth Distance (km) Brightness Sun altitude
Exits shadow 23:35:55 28° 230° (SW) 1,159 4.6 -18.1°
Maximum altitude 23:37:47 45° 285° (WNW) 845 4.3 -18.0°
Drops below altitude 10° 23:42:03 10° 359° (N) 2,002 7.4 -18.0°
Sets 23:44:24 0° 5° (N) 2,918 8.8 -17.9°
